When you browse on this site, cookies collect data to enhance your experience and personalize the content and advertising you see.
Visit our Privacy Policy to learn more. By continuing to use the site, you agree to this use of cookies and data.
  • In Hungary
  • List of Countries
  • For 7 days
  • Water Temperature
  • Weather Map
  • News
  • Weather Widgets
  • user-avatar
    Login

    Hourly Weather Korzovo

    Today, 22 January, Wednesday

    Time Temperature Precipitation Wind Pressure Humidity
    00:00 0°C° 0 mm 7 mps 741 mmHg 88%
    01:00 +1°C° 0 mm 6 mps 741 mmHg 87%
    02:00 -1°C° 0 mm 6 mps 741 mmHg 86%
    03:00 -1°C° 0 mm 6 mps 740 mmHg 87%
    04:00 -1°C° 0 mm 6 mps 739 mmHg 87%
    05:00 0°C° 0 mm 5 mps 738 mmHg 87%
    06:00 -1°C° 0.8 mm 5 mps 737 mmHg 90%
    07:00 -1°C° 0.8 mm 5 mps 737 mmHg 93%
    08:00 -1°C° 0 mm 4 mps 737 mmHg 96%
    09:00 -1°C° 0.3 mm 4 mps 736 mmHg 92%
    10:00 0°C° 0.3 mm 5 mps 735 mmHg 89%
    11:00 0°C° 0.3 mm 5 mps 735 mmHg 85%
    12:00 0°C° 0 mm 5 mps 735 mmHg 84%
    13:00 -1°C° 0 mm 6 mps 734 mmHg 82%
    14:00 -1°C° 0 mm 7 mps 734 mmHg 80%
    15:00 -1°C° 0.1 mm 6 mps 734 mmHg 79%
    16:00 -2°C° 0.1 mm 6 mps 734 mmHg 78%
    17:00 -2°C° 0.1 mm 5 mps 734 mmHg 77%
    18:00 -2°C° 0 mm 5 mps 735 mmHg 77%
    19:00 -4°C° 0 mm 6 mps 736 mmHg 77%
    20:00 -4°C° 0 mm 6 mps 737 mmHg 77%
    21:00 -4°C° 0 mm 6 mps 737 mmHg 77%
    22:00 -4°C° 0 mm 6 mps 737 mmHg 77%
    23:00 -4°C° 0 mm 7 mps 738 mmHg 78%

    Tomorrow, 23 January, Thursday

    Time Temperature Precipitation Wind Pressure Humidity
    00:00 -4°C° 0 mm 7 mps 739 mmHg 78%
    01:00 -6°C° 0 mm 7 mps 739 mmHg 79%
    02:00 -6°C° 0 mm 7 mps 740 mmHg 80%
    03:00 -6°C° 0 mm 8 mps 740 mmHg 75%
    04:00 -6°C° 0 mm 8 mps 741 mmHg 69%
    05:00 -7°C° 0 mm 8 mps 741 mmHg 63%
    06:00 -7°C° 0 mm 8 mps 742 mmHg 65%
    07:00 -7°C° 0 mm 7 mps 742 mmHg 67%
    08:00 -6°C° 0 mm 6 mps 743 mmHg 69%
    09:00 -6°C° 0 mm 7 mps 743 mmHg 65%
    10:00 -6°C° 0 mm 7 mps 744 mmHg 62%
    11:00 -6°C° 0 mm 8 mps 744 mmHg 59%
    12:00 -4°C° 0 mm 7 mps 745 mmHg 55%
    13:00 -4°C° 0 mm 7 mps 745 mmHg 52%
    14:00 -4°C° 0 mm 7 mps 745 mmHg 49%
    15:00 -4°C° 0 mm 6 mps 746 mmHg 52%
    16:00 -5°C° 0 mm 6 mps 746 mmHg 54%
    17:00 -5°C° 0 mm 5 mps 746 mmHg 57%
    18:00 -5°C° 0 mm 5 mps 746 mmHg 60%
    19:00 -5°C° 0 mm 5 mps 746 mmHg 63%
    20:00 -5°C° 0 mm 5 mps 746 mmHg 66%
    21:00 -5°C° 0 mm 5 mps 746 mmHg 70%
    22:00 -4°C° 0 mm 4 mps 746 mmHg 74%
    23:00 -4°C° 0 mm 4 mps 746 mmHg 78%

    Day after tomorrow, 24 January, Friday

    Time Temperature Precipitation Wind Pressure Humidity
    00:00 -4°C° 0 mm 4 mps 746 mmHg 82%
    01:00 -4°C° 0 mm 4 mps 746 mmHg 86%
    02:00 -4°C° 0 mm 4 mps 746 mmHg 90%
    03:00 -4°C° 0 mm 4 mps 745 mmHg 90%
    04:00 -3°C° 0 mm 4 mps 745 mmHg 91%
    05:00 -4°C° 0 mm 5 mps 744 mmHg 91%
    06:00 -4°C° 0 mm 5 mps 744 mmHg 91%
    07:00 -4°C° 0 mm 5 mps 743 mmHg 91%
    08:00 -4°C° 0 mm 6 mps 743 mmHg 91%
    09:00 -4°C° 0.3 mm 6 mps 742 mmHg 92%
    10:00 -3°C° 0.3 mm 6 mps 742 mmHg 94%
    11:00 -3°C° 0.3 mm 7 mps 742 mmHg 96%
    12:00 -2°C° 0.2 mm 7 mps 741 mmHg 95%
    13:00 -1°C° 0.2 mm 7 mps 741 mmHg 94%
    14:00 0°C° 0.2 mm 7 mps 741 mmHg 93%
    15:00 0°C° 0.1 mm 7 mps 740 mmHg 93%
    16:00 0°C° 0.1 mm 7 mps 740 mmHg 92%
    17:00 0°C° 0.1 mm 7 mps 740 mmHg 92%
    18:00 0°C° 0 mm 7 mps 740 mmHg 92%
    19:00 0°C° 0 mm 7 mps 740 mmHg 92%
    20:00 0°C° 0 mm 7 mps 740 mmHg 92%
    21:00 0°C° 0 mm 7 mps 740 mmHg 92%
    22:00 +1°C° 0 mm 6 mps 739 mmHg 92%
    23:00 +1°C° 0 mm 6 mps 739 mmHg 92%

    25 January, Saturday

    Time Temperature Precipitation Wind Pressure Humidity
    00:00 +1°C° 0.1 mm 6 mps 739 mmHg 93%
    01:00 +1°C° 0.1 mm 6 mps 739 mmHg 93%
    02:00 +1°C° 0.1 mm 6 mps 739 mmHg 94%
    03:00 +1°C° 0 mm 6 mps 738 mmHg 93%
    04:00 +1°C° 0 mm 6 mps 738 mmHg 93%
    05:00 +1°C° 0 mm 6 mps 738 mmHg 92%
    06:00 +1°C° 0.1 mm 6 mps 738 mmHg 92%
    07:00 +1°C° 0.1 mm 6 mps 738 mmHg 92%
    08:00 +1°C° 0.1 mm 6 mps 738 mmHg 91%
    09:00 +1°C° 0 mm 6 mps 738 mmHg 90%
    10:00 0°C° 0 mm 7 mps 738 mmHg 88%
    11:00 0°C° 0 mm 7 mps 738 mmHg 87%
    12:00 0°C° 0 mm 7 mps 738 mmHg 85%
    13:00 0°C° 0 mm 7 mps 738 mmHg 83%
    14:00 +1°C° 0 mm 6 mps 738 mmHg 81%
    15:00 +1°C° 0 mm 6 mps 738 mmHg 81%
    16:00 -1°C° 0 mm 6 mps 739 mmHg 82%
    17:00 -2°C° 0 mm 6 mps 739 mmHg 82%
    18:00 -2°C° 0 mm 6 mps 739 mmHg 83%
    19:00 -2°C° 0 mm 6 mps 739 mmHg 84%
    20:00 -3°C° 0 mm 6 mps 740 mmHg 85%
    21:00 -3°C° 0 mm 6 mps 740 mmHg 85%
    22:00 -3°C° 0 mm 6 mps 741 mmHg 85%
    23:00 -3°C° 0 mm 6 mps 741 mmHg 85%

    26 January, Sunday

    Time Temperature Precipitation Wind Pressure Humidity
    00:00 -3°C° 0 mm 6 mps 742 mmHg 87%
    01:00 -2°C° 0 mm 5 mps 742 mmHg 88%
    02:00 -2°C° 0 mm 5 mps 743 mmHg 89%
    03:00 -3°C° 0 mm 4 mps 743 mmHg 90%
    04:00 -3°C° 0 mm 4 mps 744 mmHg 90%
    05:00 -3°C° 0 mm 4 mps 744 mmHg 90%
    06:00 -2°C° 0 mm 3 mps 745 mmHg 90%
    07:00 -4°C° 0 mm 3 mps 746 mmHg 90%
    08:00 -4°C° 0 mm 3 mps 746 mmHg 91%
    09:00 -2°C° 0 mm 3 mps 747 mmHg 86%
    10:00 -1°C° 0 mm 2 mps 747 mmHg 82%
    11:00 -1°C° 0 mm 2 mps 748 mmHg 77%
    12:00 +1°C° 0 mm 2 mps 748 mmHg 76%
    13:00 +1°C° 0 mm 2 mps 748 mmHg 76%
    14:00 +1°C° 0 mm 2 mps 748 mmHg 75%
    15:00 +1°C° 0 mm 2 mps 748 mmHg 79%
    16:00 -1°C° 0 mm 3 mps 748 mmHg 83%
    17:00 -2°C° 0 mm 3 mps 748 mmHg 88%
    18:00 -2°C° 0 mm 3 mps 748 mmHg 89%
    19:00 -2°C° 0 mm 3 mps 748 mmHg 90%
    20:00 -2°C° 0 mm 3 mps 748 mmHg 91%
    21:00 -1°C° 0 mm 3 mps 748 mmHg 91%
    22:00 -1°C° 0 mm 3 mps 748 mmHg 92%
    23:00 -1°C° 0 mm 3 mps 748 mmHg 92%

    27 January, Monday

    Time Temperature Precipitation Wind Pressure Humidity
    00:00 -1°C° 0 mm 3 mps 748 mmHg 91%
    01:00 -1°C° 0 mm 3 mps 748 mmHg 89%
    02:00 -1°C° 0 mm 3 mps 748 mmHg 88%
    03:00 -2°C° 0 mm 4 mps 748 mmHg 88%
    04:00 -2°C° 0 mm 4 mps 748 mmHg 87%
    05:00 -2°C° 0 mm 4 mps 747 mmHg 87%
    06:00 -2°C° 0 mm 4 mps 747 mmHg 88%
    07:00 -2°C° 0 mm 4 mps 747 mmHg 88%
    08:00 -1°C° 0 mm 3 mps 747 mmHg 89%
    09:00 -2°C° 0 mm 4 mps 747 mmHg 89%
    10:00 -1°C° 0 mm 4 mps 747 mmHg 89%
    11:00 -1°C° 0 mm 4 mps 746 mmHg 89%
    12:00 -1°C° 0.1 mm 5 mps 746 mmHg 92%
    13:00 -1°C° 0.1 mm 5 mps 745 mmHg 94%
    14:00 -1°C° 0.1 mm 5 mps 744 mmHg 96%
    15:00 -1°C° 0.1 mm 5 mps 744 mmHg 96%
    16:00 -1°C° 0.1 mm 5 mps 743 mmHg 97%
    17:00 -1°C° 0.1 mm 5 mps 743 mmHg 97%
    18:00 -1°C° 0.1 mm 5 mps 743 mmHg 97%
    19:00 -1°C° 0.1 mm 5 mps 742 mmHg 97%
    20:00 -1°C° 0.1 mm 5 mps 742 mmHg 97%
    21:00 -2°C° 0.2 mm 5 mps 741 mmHg 97%
    22:00 -2°C° 0.2 mm 5 mps 741 mmHg 97%
    23:00 -2°C° 0.2 mm 5 mps 740 mmHg 97%
    Show more